[Date Prev][Date Next][Thread Prev][Thread Next] - [Date Index][Thread Index][Author Index]
2 Line ISS Keps 3-3
- Subject: [sarex] 2 Line ISS Keps 3-3
- From: "Dave Larsen PhD" <doc@xxxxxxxxxxx>
- Date: Sun, 3 Mar 2002 02:56:18 -0800
ISS
1 25544U 98067A 02062.19160880 .00060052 00000-0 68033-3 0 1384
2 25544 51.6374 225.5176 0010293 134.6363 216.6049 15.61753630187491
----
Via the sarex mailing list at AMSAT.ORG courtesy of AMSAT-NA.
To unsubscribe, send "unsubscribe sarex" to Majordomo@amsat.org
AMSAT Home